Weather in Augusta

Italy     37°14′16″N   15°13′18″E
temp.,
°C
wind,
m/s
gust,
m/s
humid.,
%
clouds,
%
prec.,
mm/h
press.,
hPa
HPBL,
m
14 may, fri
fri1423:00+17s33660 0.0 101475
02:00+16wnw23585 0.0 101376
05:00+16w4763100 0.0 1013227
08:00+18wnw4757100 0.0 1014271
11:00+22nnw25515 0.0 1015333
14:00+21ene455787 0.0 1014471
17:00+23wnw245312 0.1 1012362
20:00+21sw455192 0.1 101252
15 may, sat
sat1523:00+18sw335894 0.0 101347
02:00+17sw346687 0.1 1012114
05:00+17w51074100 0.0 1011453
08:00+18wnw796441 0.0 1012564
11:00+20nnw3549100 0.0 1013356
14:00+18ese7567100 0.0 1014279
17:00+19se876285 0.0 1013523
20:00+18ese236733 0.0 101441
16 may, sun
sun1623:00+17w24585 0.0 1015201
02:00+16wnw4556100 0.0 1015224
05:00+16nw455217 0.0 1015159
08:00+17nw454634 0.0 1015223
11:00+18ese54525 0.0 1015209
14:00+19se766248 0.0 1014248
17:00+20ese446499 0.0 1013161
20:00+19se336547 0.0 101328
17 may, mon
mon1723:00+19w22624 0.0 101417
02:00+19wsw22620 0.0 101313
05:00+19wnw22560 0.0 101222
08:00+20nw23530 0.0 101366
11:00+21e54530 0.0 1013110
14:00+21ese45630 0.0 1013110
17:00+22ene610594 0.0 1013129
20:00+21ese12691 0.0 101321
18 may, tue
tue1823:00+20wsw22660 0.0 101513
02:00+20sw22555 0.0 101411
05:00+19nw2257100 0.0 101312
08:00+20sse3359100 0.0 101569
11:00+20ese4368100 0.0 1015112
14:00+21e4572100 0.0 1015147
17:00+21ne46753 0.0 1015198
20:00+20ne710720 0.0 1016214